Location: Exeidioux
(45.6312°N, 1.6819°E)
Time: 07:51:53
(UTC+00:00)

Meteor 1-19 Rocket - Pass Details

Date: 03 March 2021
Orbit: 807 x 928 km, 81.2° (Epoch: 10 April)

Event Time Altitude Azimuth Distance (km) Brightness Sun altitude
Rises 18:41:09 0° 348° (NNW) 3,566 7.6 -11.0°
Reaches altitude 10° 18:43:40 10° 349° (NNW) 2,608 6.9 -11.4°
Maximum altitude 18:49:38 88° 263° (W) 900 4.3 -12.4°
Drops below altitude 10° 18:55:24 10° 172° (S) 2,515 6.5 -13.4°
Sets 18:57:46 0° 172° (S) 3,430 7.2 -13.8°
